STARLINK-11703

Satellite information

Favourite Embed

Satellite Type and Status

PAYLOADIN ORBIT

Key statistics

Satellite STARLINK-11703 at a glance.

Uptime

228

Days in orbit

Revolutions

≈ 15.7

Per day

Orbit

LEO

Low Earth Orbit

Inclination

43.0

Latest

Satellite identification and parameters

Extended collection of information and parameters for STARLINK-11703.

Object identification

Identified? True

Debris? False

Object name: STARLINK-11703

International designator: 2025-089J

Object number (NORAD): 63759

Object ID (CCSDS): 63759

Country: UNITED STATES OF AMERICA (US)

Current information (Y/N): Y

RCS size: LARGE

Orbital parameters

Period: 91.667 minutes

Inclination: 42.9997 deg

SMA: 6734.44 km

Apoapsis: 357.56 km

Periapsis: 355.05 km

RAAN: 102.2883 deg

Eccentricy: 0.00018637

Argument of periapsis: 286.6863 deg

Mean anomaly: 73.38 deg

Mean motion: 15.70907172 rev/day

Mean motion (dot): 0.00133131 rev/day2

B* drag term: 0.0010215758 1/REarth

Two-line elements (TLE)

Creation date: Dec. 12, 2025, 3:16 a.m.

Reference frame: TEME

Reference center: EARTH

Epoch: Dec. 11, 2025, 5:35 p.m. UTC

TLE line 0: 0 STARLINK-11703

TLE line 1: 1 63759U 25089J 25345.73298266 .00133131 00000-0 10216-2 0 9990

TLE line 2: 2 63759 42.9997 102.2883 0001864 286.6863 73.3800 15.70907172 36306

Live tracking on map

Real-time ground track for satellite STARLINK-11703.

In-orbit conjunctions

There are no conjunctions computed for STARLINK-11703, at the moment. Check back to stay up to date, as we update our databases every day.

Go to all conjunctions

Associated space launch

A batch of 23 satellites for the Starlink mega-constellation - SpaceX's project for space-based Internet communication system.

STARLINK-11703 was lifted into orbit during the mission ‘Falcon 9 Block 5 | Starlink Group 12-10’, on board a Falcon 9 space rocket.

The launch took place on April 29, 2025, 2:34 a.m. from Launch Complex 39A.

For more information about the launch, click the button.

Launch to space Falcon 9 Block 5 | Starlink Group 12-10
Falcon 9 Block 5 | Starlink Group 12-10

Agency: SpaceX

Status: Launch Successful

Launch date: April 29, 2025, 2:34 a.m. UTC

Rocket: Falcon 9

Launch pad: Launch Complex 39A

Location: Kennedy Space Center, FL, USA

...

Latest news about this satellite

News about space launch
Rocket Report: Starbase the city is coming soon; Alpha remains in beta

"A commitment to keeping on with the Moon mission is the key requirement."

News about space launch
Launch Roundup: Starlink missions fill launch manifest, Biomass and Alpha launch

This week’s schedule includes up to six Starlink launches from Florida and California. Arianespace launched… The post Launch Roundup: Starlink missions fill launch manifest, Biomass and Alpha launch appeared first on NASASpaceFlight.com.

News about space launch
Live coverage: SpaceX to launch 23 Starlink satellites on Falcon 9 rocket from the Kennedy Space Center

The mission is the second planned Falcon 9 launch for SpaceX in the span of six hours. Liftoff from pad 39A at NASA’s Kennedy Space Center is targeting 10:34 p.m. EDT (0234 UTC).


Newsletter sign-up

Weekly statistics, charts and insights to help you stay on top of the space industry.